World > North America > United States > Nebraska > Lincoln   City of Lincoln, Nebraska

Hourly Lincoln, NE Regional Weather

Feedback E-mail the Weather

Quick WX

Lincoln, NE Weather Maps

°F °C°F °C
Lincoln Weather Map
UTC Time: 8/12/2022, 06:01
Your Time:

Lincoln, NE Regional Weather

Expires:202208120600;;950063
ASUS43 KEAX 120515
RWREAX

WEATHER ROUNDUP FOR EASTERN KANSAS AND NORTHWEST MISSOURI
NATIONAL WEATHER SERVICE KANSAS CITY/PLEASANT HILL MO
1200 AM CDT FRI AUG 12 2022


IAZ060-094-KSZ022-034>040-054-083-096-NEZ052-066-093-120600- 
...KANSAS...SOUTHEAST NEBRASKA AND IOWA...
  
CITY           SKY/WX    TMP DP  RH WIND       PRES   REMARKS
TOPEKA         CLEAR     70  65  84 CALM      30.12S                  
MANHATTAN      CLEAR     64  57  78 CALM      30.13R                  
EMPORIA        CLEAR     68  58  70 S3        30.14R                  
OTTAWA         FAIR      64  64 100 CALM      30.12S                  
CHANUTE        CLEAR     73  61  65 E5        30.13R                  
SALINA         CLEAR     74  58  57 SE7       30.13R                  
WICHITA        PTCLDY    78  53  41 SE12      30.12R                  
OMAHA          PTCLDY    77  66  68 SE7       30.11R                  
LINCOLN        CLEAR     72  61  68 S9        30.12S                  
FALLS CITY     CLEAR     72  68  87 CALM      30.12S                  
LAMONI         CLEAR     75  66  73 E5        30.14S                  
DES MOINES     PTCLDY    72  67  84 E8        30.15F                  

$$

  

SKY/WX - Weather  TMP - Temperature  DP - Dew Point  RH - Humidity
WIND - Wind Direction/Speed PRES - Barometric Pressure VSB - Visibility
WCI - Wind Chill Index E13G22 Wind - East Wind 13 mph/Gusts of 22 mph

Trending Headlines

Lincoln Radar Loop



Lincoln Quick Facts


National Two Day Weather Forecast


E-mail the Lincoln Weather Forecast

Voice your opinion or tell us about page issues...